SL-3 R/B (13154 NORAD) Tracking and Keplerian Element Data

This shows tracking and keplerian element data for the satellite.

Feedback or suggestion? Click here.




ElementValue
Catalog13154
NameSL-3 R/B
Epoch Orbit36964
Epoch Day354.19584786
Epoch Year2025
RAAN307.5187
Inclination81.1714
Eccentricity0.0029434
Argument of Perigee226.9453
Mean Anonmoly132.9307
Mean Motion15.09564569
Decay Rate2.006E-05
L11 13154U 82039B 25354.19584786 .00002006 00000+0 12235-3 0 9996
L22 13154 81.1714 307.5187 0029434 226.9453 132.9307 15.09564569369645



Live tracking and technical data element details for SL-3 R/B (NORAD 13154). SL-3 R/B can be tracked NOW for your location showing map with azimuth and elevation plus other details from your city location.







IsCatalogInMostPopularTable: catalog: 13154, numindb: 451
Update: records affected: 1



GetName: 13154 SL-3 R/B

Hit Count: updated at: Sat, 07 Mar 2026 06:43:27 GMT